This is the latest recevied weather packets stored in our database for station/object EFHK. If no packets are shown the sender has not sent any weather packets the latest 10 day(s).
| Time | Temp. | Humidity | Pressure | Rain* | Wind** | Luminosity | Snow |
|---|---|---|---|---|---|---|---|
| 1777482205 | 8.89° C | 26% | 1022 hPa | - | - | - | - |
| 1777481607 | 8.89° C | 26% | 1022 hPa | - | - | - | - |
| 1777481004 | 8.89° C | 26% | 1017.3 hPa | - | - | - | - |
| 1777480408 | 8.89° C | 26% | 1017.3 hPa | - | - | - | - |
| 1777479807 | 8.89° C | 26% | 1017.3 hPa | - | - | - | - |
| 1777479203 | 8.89° C | 24% | 1017.3 hPa | - | - | - | - |
| 1777478606 | 8.89° C | 24% | 1017.6 hPa | - | - | - | - |
| 1777478006 | 8.89° C | 24% | 1022 hPa | - | - | - | - |
| 1777477404 | 10° C | 23% | 1023 hPa | - | - | - | - |
| 1777476809 | 10° C | 23% | 1023 hPa | - | - | - | - |
| 1777476207 | 10° C | 23% | 1017.6 hPa | - | - | - | - |
| 1777475604 | 10° C | 23% | 1023 hPa | - | - | - | - |
| 1777475006 | 10° C | 23% | 1023 hPa | - | - | - | - |
| 1777474405 | 10° C | 23% | 1023 hPa | - | - | - | - |
| 1777473807 | 8.89° C | 24% | 1023 hPa | - | - | - | - |
| 1777473213 | 8.89° C | 24% | 1023 hPa | - | - | - | - |
| 1777472608 | 8.89° C | 24% | 1023 hPa | - | - | - | - |
| 1777472004 | 10° C | 27% | 1017.9 hPa | - | - | - | - |
| 1777471403 | 10° C | 27% | 1017.9 hPa | - | - | - | - |
| 1777470803 | 10° C | 27% | 1017.9 hPa | - | - | - | - |
| 1777470201 | 10° C | 27% | 1017.9 hPa | - | - | - | - |
| 1777469605 | 10° C | 27% | 1017.9 hPa | - | - | - | - |
| 1777469005 | 10° C | 27% | 1017.9 hPa | - | - | - | - |
| 1777468402 | 8.89° C | 29% | 1017.9 hPa | - | - | - | - |
| 1777467804 | 8.89° C | 29% | 1018.3 hPa | - | - | - | - |
* Rain since midnight (hover to see other rain measurements)
** Current wind speed in m/s (hover to see current wind gust speed)